Weather History for KRIC - April, 2013

Change the Weather History Date:

Sunday, April 7, 2013

  Actual Average Record
Temperature  
Mean Temperature 54 °F 56 °F  
Max Temperature 73 °F 68 °F 94 °F (1929)
Min Temperature 34 °F 44 °F 25 °F (1977)
Degree Days  
Heating Degree Days 11 10  
Month to date heating degree days 110 76  
Since 1 July heating degree days 3502 3528  
Cooling Degree Days 0 1  
Month to date cooling degree days 0 6  
Year to date cooling degree days 1 12  
Growing Degree Days 4 (Base 50)    
Moisture  
Dew Point 38 °F    
Average Humidity 60    
Maximum Humidity 89    
Minimum Humidity 31    
Precipitation  
Precipitation 0.00 in 0.12 in 1.95 in (2003)
Month to date precipitation 0.85 0.81  
Year to date precipitation 14.35 10.65  
Snow  
Snow 0.00 in 0.00 in 1.00 in (2007)
Month to date snowfall T 0.0  
Since 1 July snowfall 8.6 10.2  
Snow Depth 0.00 in    
Sea Level Pressure  
Sea Level Pressure 30.20 in    
Wind  
Wind Speed 11 mph (South)    
Max Wind Speed 22 mph    
Max Gust Speed 31 mph    
Visibility 10 miles    
Events      
T = Trace of Precipitation, MM = Missing Value Source: NWS Daily Summary

Daily Weather History Graph

Daily Weather History Graph

Search for Another Location

Airport or City:

Trip Planner

Search our weather history database for the weather conditions in past years. The results will help you decide how hot, cold, wet, or windy it might be!

Date:

Astronomy

Apr. 07, 2013 Rise Set
Actual Time 6:45 AM EDT 7:37 PM EDT
Civil Twilight 6:18 AM EDT 8:04 PM EDT
Nautical Twilight 5:47 AM EDT 8:35 PM EDT
Astronomical Twilight 5:15 AM EDT 9:08 PM EDT
Moon 4:58 AM EDT (4/7) 5:10 PM EDT (4/7)
Length of Visible Light 13h 45m
Length of Day
12h 52m
Waning Crescent, 8% of the Moon is Illuminated
Apr 7
Waning Crescent
Apr 10
New
Apr 18
First Quarter
Apr 25
Full
May 2
Last Quarter

Hourly Weather History & Observations

Time (EDT) Temp. Windchill Dew Point Humidity Pressure Visibility Wind Dir Wind Speed Gust Speed Precip Events Conditions
12:54 AM 41.0 °F 37.1 °F 32.0 °F 70% 30.32 in 10.0 mi SSE 5.8 mph - N/A   Mostly Cloudy
1:54 AM 41.0 °F 35.8 °F 33.1 °F 73% 30.30 in 10.0 mi SE 8.1 mph - N/A   Overcast
2:54 AM 39.9 °F 36.7 °F 33.1 °F 77% 30.28 in 10.0 mi SSE 4.6 mph - N/A   Mostly Cloudy
3:54 AM 39.0 °F 36.8 °F 33.1 °F 79% 30.28 in 10.0 mi South 3.5 mph - N/A   Scattered Clouds
4:54 AM 37.9 °F 33.5 °F 33.1 °F 83% 30.30 in 10.0 mi SSW 5.8 mph - N/A   Scattered Clouds
5:54 AM 39.0 °F 36.8 °F 33.1 °F 79% 30.30 in 10.0 mi WSW 3.5 mph - N/A   Scattered Clouds
6:54 AM 36.0 °F 32.1 °F 32.0 °F 86% 30.30 in 10.0 mi South 4.6 mph - N/A   Partly Cloudy
7:54 AM 39.9 °F 36.7 °F 36.0 °F 86% 30.30 in 10.0 mi South 4.6 mph - N/A   Partly Cloudy
8:54 AM 46.0 °F 41.0 °F 39.0 °F 76% 30.30 in 10.0 mi SSE 10.4 mph - N/A   Partly Cloudy
9:54 AM 51.1 °F - 37.9 °F 61% 30.29 in 10.0 mi South 10.4 mph - N/A   Partly Cloudy
10:54 AM 55.0 °F - 37.0 °F 51% 30.27 in 10.0 mi South 10.4 mph - N/A   Scattered Clouds
11:54 AM 60.1 °F - 39.0 °F 46% 30.25 in 10.0 mi South 11.5 mph 18.4 mph N/A   Mostly Cloudy
12:54 PM 64.0 °F - 39.0 °F 40% 30.21 in 10.0 mi South 13.8 mph - N/A   Mostly Cloudy
1:54 PM 68.0 °F - 39.0 °F 35% 30.16 in 10.0 mi SSW 19.6 mph 27.6 mph N/A   Mostly Cloudy
2:54 PM 70.0 °F - 39.9 °F 33% 30.12 in 10.0 mi SSW 20.7 mph 27.6 mph N/A   Mostly Cloudy
3:54 PM 71.1 °F - 39.9 °F 32% 30.10 in 10.0 mi South 15.0 mph 25.3 mph N/A   Mostly Cloudy
4:54 PM 72.0 °F - 39.9 °F 31% 30.09 in 10.0 mi SSW 13.8 mph - N/A   Overcast
5:54 PM 71.1 °F - 39.0 °F 31% 30.08 in 10.0 mi SSW 18.4 mph - N/A   Overcast
6:54 PM 69.1 °F - 39.0 °F 33% 30.07 in 10.0 mi SSW 16.1 mph - N/A   Mostly Cloudy
7:54 PM 64.9 °F - 39.9 °F 40% 30.08 in 10.0 mi SSW 12.7 mph - N/A   Mostly Cloudy
8:54 PM 63.0 °F - 41.0 °F 45% 30.09 in 10.0 mi South 11.5 mph - N/A   Scattered Clouds
9:54 PM 59.0 °F - 42.1 °F 53% 30.10 in 10.0 mi South 10.4 mph - N/A   Partly Cloudy
10:54 PM 57.0 °F - 42.1 °F 57% 30.11 in 10.0 mi South 9.2 mph - N/A   Partly Cloudy
11:54 PM 57.0 °F - 43.0 °F 59% 30.11 in 10.0 mi South 8.1 mph - N/A   Clear